Simultaneous Nadir Overpasses (SNOs) Predictions

Prediction of SNOs between GOES-16 and AQUA Satellite Orbit:

Table of predicted SNOs for the next 14.0 days since TLE Epoch: 7/17/2020
Index Date Time (GOES-16) GOES-16 Lat,Lon AQUA Lat,Lon Distance(km) Time Diff (sec)
1 07/18/2020 06:17:27 -0.01, -75.20 -0.90, -70.90 488.28 80
2 07/18/2020 18:38:50 0.02, -75.21 -0.19, -76.09 101.00 80
3 07/20/2020 18:29:19 0.01, -75.21 0.44, -73.14 235.89 80
4 07/21/2020 06:47:55 -0.02, -75.21 0.66, -78.29 351.22 80
5 07/23/2020 06:35:44 -0.01, -75.22 0.02, -75.34 13.74 80
6 07/25/2020 06:26:13 -0.01, -75.24 -0.62, -72.39 324.48 80
7 07/25/2020 18:44:57 0.01, -75.25 -0.48, -77.58 264.53 80
8 07/27/2020 18:35:26 0.01, -75.27 0.16, -74.62 74.28 80
9 07/29/2020 18:23:15 0.01, -75.30 0.80, -71.67 413.36 80
10 07/30/2020 06:41:51 -0.02, -75.30 0.29, -76.83 173.06 80
